TimeEST,TemperatureF,Dew PointF,Humidity,Sea Level PressureIn,VisibilityMPH,Wind Direction,Wind SpeedMPH,Gust SpeedMPH,PrecipitationIn,Events,Conditions,WindDirDegrees,DateUTC
12:15 AM,42.3,40.3,93,29.99,10.0,SE,4.6,-,N/A,Rain,Light Rain,140,2012-12-07 05:15:00
12:35 AM,41.9,40.1,93,29.98,7.0,SSE,4.6,-,0.01,Rain,Rain,160,2012-12-07 05:35:00
12:55 AM,41.9,40.5,95,29.98,7.0,Calm,Calm,-,0.02,Rain,Light Rain,0,2012-12-07 05:55:00
1:15 AM,41.5,40.6,97,29.98,5.0,North,-9999.0,-,0.01,Rain,Heavy Rain,0,2012-12-07 06:15:00
1:35 AM,41.5,41.0,98,29.98,5.0,North,-9999.0,-,0.05,Rain,Light Rain,0,2012-12-07 06:35:00
1:55 AM,41.5,41.2,99,29.98,4.0,Calm,Calm,-,0.07,Rain,Light Rain,0,2012-12-07 06:55:00
2:15 AM,41.9,41.5,99,29.99,4.0,Calm,Calm,-,0.02,Rain,Rain,0,2012-12-07 07:15:00
2:35 AM,41.9,41.5,99,29.98,4.0,Calm,Calm,-,0.04,Rain,Rain,0,2012-12-07 07:35:00
2:55 AM,41.9,41.5,99,29.98,3.0,Calm,Calm,-,0.07,Rain,Rain,0,2012-12-07 07:55:00
3:15 AM,42.1,42.1,100,29.98,3.0,Calm,Calm,-,0.03,Rain,Rain,0,2012-12-07 08:15:00
3:35 AM,42.3,42.3,100,29.96,3.0,Calm,Calm,-,0.05,Rain,Light Rain,0,2012-12-07 08:35:00
3:55 AM,42.8,42.8,100,29.97,2.5,South,3.5,-,0.06,Rain,Light Rain,180,2012-12-07 08:55:00
4:15 AM,43.5,43.5,100,29.97,3.0,South,3.5,-,N/A,,Overcast,180,2012-12-07 09:15:00
4:35 AM,43.9,43.9,100,29.97,3.0,South,3.5,-,N/A,,Overcast,170,2012-12-07 09:35:00
4:55 AM,44.1,44.1,100,29.97,3.0,South,4.6,-,N/A,,Overcast,180,2012-12-07 09:55:00
5:15 AM,44.6,44.6,100,29.97,3.0,SSW,3.5,-,N/A,,Overcast,200,2012-12-07 10:15:00
5:35 AM,44.6,44.6,100,29.97,3.0,SSW,3.5,-,N/A,,Overcast,210,2012-12-07 10:35:00
5:55 AM,44.8,44.8,100,29.97,2.5,SSW,3.5,-,N/A,,Overcast,200,2012-12-07 10:55:00
6:15 AM,44.8,44.8,100,29.97,0.8,Calm,Calm,-,N/A,,Overcast,0,2012-12-07 11:15:00
6:35 AM,45.0,45.0,100,29.97,0.2,Calm,Calm,-,N/A,Fog,Fog,0,2012-12-07 11:35:00
6:55 AM,45.0,45.0,100,29.98,0.2,SSW,4.6,-,N/A,Fog,Fog,210,2012-12-07 11:55:00
7:15 AM,45.5,45.5,100,29.99,0.2,Calm,Calm,-,N/A,Fog,Fog,0,2012-12-07 12:15:00
7:23 AM,46.4,46.4,100,29.99,0.1,Calm,Calm,-,N/A,Fog,Fog,0,2012-12-07 12:23:00
7:50 AM,46.4,46.4,100,29.99,0.1,Calm,Calm,-,N/A,Fog,Fog,0,2012-12-07 12:50:00
8:50 AM,46.4,46.4,100,29.99,0.2,Calm,Calm,-,N/A,Fog,Fog,0,2012-12-07 13:50:00
9:50 AM,46.4,46.4,100,30.00,1.5,Calm,Calm,-,N/A,,Overcast,0,2012-12-07 14:50:00
10:22 AM,46.4,46.4,100,30.01,2.8,Calm,Calm,-,N/A,,Overcast,0,2012-12-07 15:22:00
10:50 AM,46.4,46.4,100,30.01,3.0,Calm,Calm,-,N/A,,Overcast,0,2012-12-07 15:50:00
11:58 AM,48.2,48.2,100,29.97,3.0,Calm,Calm,-,N/A,,Overcast,0,2012-12-07 16:58:00
12:50 PM,48.2,48.2,100,29.96,3.0,Calm,Calm,-,N/A,Rain,Light Rain,0,2012-12-07 17:50:00
1:48 PM,48.2,48.2,100,29.94,4.0,Calm,Calm,-,N/A,Rain,Light Rain,0,2012-12-07 18:48:00
2:58 PM,48.2,48.2,100,29.91,4.0,Calm,Calm,-,N/A,Rain,Light Rain,0,2012-12-07 19:58:00
3:50 PM,48.2,46.4,93,29.89,7.0,Calm,Calm,-,N/A,,Drizzle,0,2012-12-07 20:50:00
4:50 PM,48.2,48.2,100,29.90,4.0,Calm,Calm,-,N/A,Rain,Rain,0,2012-12-07 21:50:00
6:55 PM,48.2,48.2,100,29.89,3.0,East,4.6,-,N/A,Rain,Rain,100,2012-12-07 23:55:00
8:15 PM,48.2,48.2,100,29.88,2.5,ENE,3.5,-,0.01,Rain,Light Rain,70,2012-12-08 01:15:00
8:35 PM,48.2,48.2,100,29.87,2.0,Calm,Calm,-,0.02,Rain,Light Rain,0,2012-12-08 01:35:00
8:55 PM,48.4,48.4,100,29.88,2.0,Calm,Calm,-,0.05,Rain,Rain,0,2012-12-08 01:55:00
9:35 PM,48.7,48.7,100,29.87,2.5,East,3.5,-,0.05,Rain,Light Rain,90,2012-12-08 02:35:00
9:55 PM,48.7,48.7,100,29.86,1.5,ESE,3.5,-,0.05,Rain,Light Rain,110,2012-12-08 02:55:00
10:15 PM,49.1,49.1,100,29.85,0.5,ESE,4.6,-,N/A,Fog,Fog,110,2012-12-08 03:15:00
10:35 PM,49.1,49.1,100,29.85,0.2,ESE,3.5,-,N/A,Rain,Light Rain,120,2012-12-08 03:35:00
10:55 PM,49.3,49.3,100,29.85,0.5,SSE,4.6,-,N/A,Rain,Light Rain,160,2012-12-08 03:55:00
11:15 PM,49.5,49.5,100,29.84,0.8,SSE,5.8,-,N/A,Rain,Light Rain,160,2012-12-08 04:15:00
11:35 PM,50.0,50.0,100,29.84,2.0,South,5.8,-,N/A,,Overcast,170,2012-12-08 04:35:00
11:55 PM,50.4,50.4,100,29.84,1.8,South,6.9,-,N/A,,Overcast,180,2012-12-08 04:55:00